Time,TemperatureF,DewpointF,PressureIn,WindDirection,WindDirectionDegrees,WindSpeedMPH,WindSpeedGustMPH,Humidity,HourlyPrecipIn,Conditions,Clouds,dailyrainin,SoftwareType,DateUTC
2013-02-13 00:01:00,48.0,47.0,-100.00,SW,225,10.0,16.0,97,-99.99,,,-99.99,,2013-02-13 08:01:00,
2013-02-13 00:11:00,48.0,47.0,-100.00,SW,225,9.0,14.0,96,-99.99,,,-99.99,,2013-02-13 08:11:00,
2013-02-13 00:21:00,48.0,47.0,-100.00,SW,225,9.0,14.0,96,-99.99,,,-99.99,,2013-02-13 08:21:00,
2013-02-13 00:31:00,48.0,46.0,-100.00,SW,225,9.0,17.0,95,-99.99,,,-99.99,,2013-02-13 08:31:00,
2013-02-13 00:43:00,47.0,46.0,-100.00,SW,225,8.0,17.0,95,-99.99,,,-99.99,,2013-02-13 08:43:00,
2013-02-13 00:52:00,47.0,46.0,-100.00,SW,225,8.0,17.0,95,-99.99,,,-99.99,,2013-02-13 08:52:00,
2013-02-13 01:01:00,47.0,46.0,-100.00,SW,225,12.0,19.0,97,-99.99,,,-99.99,,2013-02-13 09:01:00,
2013-02-13 01:11:00,47.0,46.0,-100.00,SW,225,11.0,19.0,96,-99.99,,,-99.99,,2013-02-13 09:11:00,
2013-02-13 01:21:00,47.0,46.0,-100.00,SW,225,11.0,19.0,96,-99.99,,,-99.99,,2013-02-13 09:21:00,
2013-02-13 01:31:00,47.0,46.0,-100.00,SW,225,12.0,21.0,97,-99.99,,,-99.99,,2013-02-13 09:31:00,
2013-02-13 01:41:00,46.0,46.0,-100.00,SW,225,10.0,19.0,98,-99.99,,,-99.99,,2013-02-13 09:41:00,
2013-02-13 01:52:00,47.0,46.0,-100.00,SW,225,6.0,19.0,98,-99.99,,,-99.99,,2013-02-13 09:52:00,
2013-02-13 02:01:00,47.0,46.0,-100.00,SW,225,6.0,19.0,98,-99.99,,,-99.99,,2013-02-13 10:01:00,
2013-02-13 02:11:00,46.0,46.0,-100.00,SW,225,4.0,19.0,97,-99.99,,,-99.99,,2013-02-13 10:11:00,
2013-02-13 02:21:00,46.0,46.0,-100.00,SW,225,4.0,19.0,97,-99.99,,,-99.99,,2013-02-13 10:21:00,
2013-02-13 02:31:00,46.0,45.0,-100.00,SW,225,4.0,17.0,97,-99.99,,,-99.99,,2013-02-13 10:31:00,
2013-02-13 02:41:00,46.0,46.0,-100.00,West,270,4.0,15.0,97,-99.99,,,-99.99,,2013-02-13 10:41:00,
2013-02-13 02:52:00,46.0,46.0,-100.00,West,270,4.0,15.0,97,-99.99,,,-99.99,,2013-02-13 10:52:00,
2013-02-13 03:01:00,47.0,46.0,-100.00,SW,225,3.0,11.0,96,-99.99,,,-99.99,,2013-02-13 11:01:00,
2013-02-13 03:11:00,47.0,45.0,-100.00,SW,225,4.0,14.0,95,-99.99,,,-99.99,,2013-02-13 11:11:00,
2013-02-13 03:22:00,47.0,45.0,-100.00,SW,225,4.0,14.0,95,-99.99,,,-99.99,,2013-02-13 11:22:00,
2013-02-13 03:32:00,47.0,45.0,-100.00,West,270,6.0,16.0,95,-99.99,,,-99.99,,2013-02-13 11:32:00,
2013-02-13 03:42:00,47.0,45.0,-100.00,SW,225,8.0,21.0,94,-99.99,,,-99.99,,2013-02-13 11:42:00,
2013-02-13 03:52:00,46.0,45.0,-100.00,SW,225,6.0,17.0,95,-99.99,,,-99.99,,2013-02-13 11:52:00,
2013-02-13 04:02:00,46.0,45.0,-100.00,SW,225,6.0,17.0,95,-99.99,,,-99.99,,2013-02-13 12:02:00,
2013-02-13 04:11:00,47.0,45.0,-100.00,SW,225,5.0,17.0,94,-99.99,,,-99.99,,2013-02-13 12:11:00,
2013-02-13 04:21:00,47.0,45.0,-100.00,SW,225,5.0,17.0,94,-99.99,,,-99.99,,2013-02-13 12:21:00,
2013-02-13 04:32:00,46.0,45.0,-100.00,West,270,4.0,16.0,95,-99.99,,,-99.99,,2013-02-13 12:32:00,
2013-02-13 04:42:00,46.0,45.0,-100.00,SW,225,2.0,14.0,95,-99.99,,,-99.99,,2013-02-13 12:42:00,
2013-02-13 04:52:00,46.0,45.0,-100.00,SW,225,2.0,14.0,95,-99.99,,,-99.99,,2013-02-13 12:52:00,
2013-02-13 05:02:00,46.0,45.0,-100.00,SW,225,8.0,14.0,96,-99.99,,,-99.99,,2013-02-13 13:02:00,
2013-02-13 05:11:00,46.0,45.0,-100.00,South,180,6.0,16.0,96,-99.99,,,-99.99,,2013-02-13 13:11:00,
2013-02-13 05:21:00,46.0,45.0,-100.00,South,180,6.0,16.0,96,-99.99,,,-99.99,,2013-02-13 13:21:00,
2013-02-13 05:31:00,46.0,45.0,-100.00,SW,225,6.0,16.0,95,-99.99,,,-99.99,,2013-02-13 13:31:00,
2013-02-13 05:41:00,46.0,45.0,-100.00,SW,225,6.0,15.0,94,-99.99,,,-99.99,,2013-02-13 13:41:00,
2013-02-13 05:52:00,46.0,45.0,-100.00,SW,225,6.0,15.0,94,-99.99,,,-99.99,,2013-02-13 13:52:00,
2013-02-13 06:01:00,46.0,44.0,-100.00,SW,225,3.0,12.0,94,-99.99,,,-99.99,,2013-02-13 14:01:00,
2013-02-13 06:11:00,46.0,45.0,-100.00,SW,225,5.0,15.0,94,-99.99,,,-99.99,,2013-02-13 14:11:00,
2013-02-13 06:21:00,46.0,45.0,-100.00,SW,225,5.0,15.0,94,-99.99,,,-99.99,,2013-02-13 14:21:00,
2013-02-13 06:31:00,46.0,45.0,-100.00,SW,225,8.0,14.0,94,-99.99,,,-99.99,,2013-02-13 14:31:00,
2013-02-13 06:41:00,46.0,45.0,-100.00,SW,225,6.0,13.0,95,-99.99,,,-99.99,,2013-02-13 14:41:00,
2013-02-13 06:52:00,46.0,45.0,-100.00,SW,225,6.0,13.0,95,-99.99,,,-99.99,,2013-02-13 14:52:00,
2013-02-13 07:01:00,46.0,45.0,-100.00,SW,225,6.0,13.0,95,-99.99,,,-99.99,,2013-02-13 15:01:00,
2013-02-13 07:11:00,47.0,45.0,-100.00,SW,225,4.0,14.0,93,-99.99,,,-99.99,,2013-02-13 15:11:00,
2013-02-13 07:21:00,47.0,45.0,-100.00,SW,225,4.0,14.0,93,-99.99,,,-99.99,,2013-02-13 15:21:00,
2013-02-13 07:32:00,47.0,44.0,-100.00,South,180,2.0,9.0,92,-99.99,,,-99.99,,2013-02-13 15:32:00,
2013-02-13 07:42:00,47.0,45.0,-100.00,SW,225,5.0,9.0,93,-99.99,,,-99.99,,2013-02-13 15:42:00,
2013-02-13 07:52:00,47.0,45.0,-100.00,SW,225,5.0,9.0,93,-99.99,,,-99.99,,2013-02-13 15:52:00,
2013-02-13 08:01:00,47.0,44.0,-100.00,SW,225,4.0,9.0,92,-99.99,,,-99.99,,2013-02-13 16:01:00,
2013-02-13 08:11:00,47.0,45.0,-100.00,South,180,4.0,11.0,93,-99.99,,,-99.99,,2013-02-13 16:11:00,
2013-02-13 08:21:00,47.0,45.0,-100.00,South,180,4.0,11.0,93,-99.99,,,-99.99,,2013-02-13 16:21:00,
2013-02-13 08:31:00,46.0,45.0,-100.00,SW,225,4.0,8.0,94,-99.99,,,-99.99,,2013-02-13 16:31:00,
2013-02-13 08:41:00,47.0,45.0,-100.00,SW,225,4.0,9.0,94,-99.99,,,-99.99,,2013-02-13 16:41:00,
2013-02-13 08:52:00,47.0,45.0,-100.00,SW,225,4.0,9.0,94,-99.99,,,-99.99,,2013-02-13 16:52:00,
2013-02-13 09:01:00,47.0,45.0,-100.00,South,180,4.0,8.0,94,-99.99,,,-99.99,,2013-02-13 17:01:00,
2013-02-13 09:11:00,47.0,45.0,-100.00,SW,225,5.0,9.0,93,-99.99,,,-99.99,,2013-02-13 17:11:00,
2013-02-13 09:21:00,47.0,45.0,-100.00,SW,225,5.0,9.0,93,-99.99,,,-99.99,,2013-02-13 17:21:00,
2013-02-13 09:31:00,47.0,45.0,-100.00,SW,225,4.0,8.0,92,-99.99,,,-99.99,,2013-02-13 17:31:00,
2013-02-13 09:41:00,47.0,45.0,-100.00,SW,225,3.0,9.0,92,-99.99,,,-99.99,,2013-02-13 17:41:00,
2013-02-13 09:52:00,47.0,45.0,-100.00,SW,225,3.0,9.0,92,-99.99,,,-99.99,,2013-02-13 17:52:00,
2013-02-13 10:01:00,47.0,45.0,-100.00,SW,225,3.0,9.0,92,-99.99,,,-99.99,,2013-02-13 18:01:00,
2013-02-13 10:11:00,48.0,45.0,-100.00,SW,225,7.0,12.0,90,-99.99,,,-99.99,,2013-02-13 18:11:00,
2013-02-13 10:22:00,48.0,45.0,-100.00,SW,225,7.0,12.0,90,-99.99,,,-99.99,,2013-02-13 18:22:00,
2013-02-13 10:32:00,48.0,46.0,-100.00,SW,225,4.0,12.0,92,-99.99,,,-99.99,,2013-02-13 18:32:00,
2013-02-13 10:41:00,48.0,46.0,-100.00,SW,225,6.0,16.0,94,-99.99,,,-99.99,,2013-02-13 18:41:00,
2013-02-13 10:52:00,48.0,46.0,-100.00,SW,225,6.0,16.0,94,-99.99,,,-99.99,,2013-02-13 18:52:00,
2013-02-13 11:01:00,48.0,46.0,-100.00,SW,225,6.0,16.0,94,-99.99,,,-99.99,,2013-02-13 19:01:00,
2013-02-13 11:11:00,47.0,47.0,-100.00,South,180,7.0,16.0,97,-99.99,,,-99.99,,2013-02-13 19:11:00,
2013-02-13 11:21:00,47.0,47.0,-100.00,South,180,7.0,16.0,97,-99.99,,,-99.99,,2013-02-13 19:21:00,
2013-02-13 11:31:00,48.0,47.0,-100.00,SW,225,5.0,14.0,97,-99.99,,,-99.99,,2013-02-13 19:31:00,
2013-02-13 11:41:00,48.0,47.0,-100.00,SW,225,6.0,14.0,95,-99.99,,,-99.99,,2013-02-13 19:41:00,
2013-02-13 11:52:00,48.0,47.0,-100.00,SW,225,6.0,14.0,95,-99.99,,,-99.99,,2013-02-13 19:52:00,
2013-02-13 12:02:00,48.0,47.0,-100.00,SW,225,6.0,14.0,95,-99.99,,,-99.99,,2013-02-13 20:02:00,
2013-02-13 12:11:00,49.0,46.0,-100.00,SW,225,9.0,17.0,91,-99.99,,,-99.99,,2013-02-13 20:11:00,
2013-02-13 12:21:00,49.0,46.0,-100.00,SW,225,9.0,17.0,91,-99.99,,,-99.99,,2013-02-13 20:21:00,
2013-02-13 12:31:00,49.0,46.0,-100.00,SW,225,4.0,14.0,90,-99.99,,,-99.99,,2013-02-13 20:31:00,
2013-02-13 12:41:00,49.0,45.0,-100.00,SW,225,3.0,17.0,87,-99.99,,,-99.99,,2013-02-13 20:41:00,
2013-02-13 12:52:00,49.0,45.0,-100.00,SW,225,3.0,17.0,87,-99.99,,,-99.99,,2013-02-13 20:52:00,
2013-02-13 13:01:00,50.0,46.0,-100.00,SW,225,3.0,16.0,86,-99.99,,,-99.99,,2013-02-13 21:01:00,
2013-02-13 13:11:00,49.0,44.0,-100.00,North,0,4.0,16.0,84,-99.99,,,-99.99,,2013-02-13 21:11:00,
2013-02-13 13:21:00,49.0,44.0,-100.00,North,0,4.0,16.0,84,-99.99,,,-99.99,,2013-02-13 21:21:00,
2013-02-13 13:31:00,50.0,44.0,-100.00,SW,225,8.0,12.0,79,-99.99,,,-99.99,,2013-02-13 21:31:00,
2013-02-13 13:42:00,50.0,44.0,-100.00,SW,225,6.0,15.0,80,-99.99,,,-99.99,,2013-02-13 21:42:00,
2013-02-13 13:52:00,50.0,44.0,-100.00,SW,225,6.0,15.0,80,-99.99,,,-99.99,,2013-02-13 21:52:00,
2013-02-13 14:02:00,50.0,44.0,-100.00,SW,225,6.0,15.0,80,-99.99,,,-99.99,,2013-02-13 22:02:00,
2013-02-13 14:11:00,50.0,44.0,-100.00,SW,225,8.0,16.0,78,-99.99,,,-99.99,,2013-02-13 22:11:00,
2013-02-13 14:21:00,50.0,44.0,-100.00,SW,225,8.0,16.0,78,-99.99,,,-99.99,,2013-02-13 22:21:00,
2013-02-13 14:31:00,50.0,44.0,-100.00,SW,225,2.0,14.0,80,-99.99,,,-99.99,,2013-02-13 22:31:00,
2013-02-13 14:42:00,50.0,44.0,-100.00,SW,225,3.0,13.0,80,-99.99,,,-99.99,,2013-02-13 22:42:00,
2013-02-13 14:52:00,50.0,44.0,-100.00,SW,225,3.0,13.0,80,-99.99,,,-99.99,,2013-02-13 22:52:00,
2013-02-13 15:01:00,50.0,44.0,-100.00,SW,225,4.0,12.0,80,-99.99,,,-99.99,,2013-02-13 23:01:00,
2013-02-13 15:11:00,49.0,43.0,-100.00,SW,225,6.0,12.0,80,-99.99,,,-99.99,,2013-02-13 23:11:00,
2013-02-13 15:21:00,49.0,43.0,-100.00,SW,225,6.0,12.0,80,-99.99,,,-99.99,,2013-02-13 23:21:00,
2013-02-13 15:32:00,49.0,43.0,-100.00,SW,225,6.0,11.0,80,-99.99,,,-99.99,,2013-02-13 23:32:00,
2013-02-13 15:41:00,50.0,43.0,-100.00,SW,225,4.0,12.0,79,-99.99,,,-99.99,,2013-02-13 23:41:00,
2013-02-13 15:52:00,50.0,43.0,-100.00,SW,225,4.0,12.0,79,-99.99,,,-99.99,,2013-02-13 23:52:00,
2013-02-13 16:01:00,49.0,43.0,-100.00,SW,225,6.0,11.0,78,-99.99,,,-99.99,,2013-02-14 00:01:00,
2013-02-13 16:11:00,50.0,43.0,-100.00,SW,225,6.0,10.0,78,-99.99,,,-99.99,,2013-02-14 00:11:00,
2013-02-13 16:21:00,50.0,43.0,-100.00,SW,225,6.0,10.0,78,-99.99,,,-99.99,,2013-02-14 00:21:00,
2013-02-13 16:31:00,50.0,43.0,-100.00,SW,225,5.0,10.0,78,-99.99,,,-99.99,,2013-02-14 00:31:00,
2013-02-13 16:42:00,50.0,43.0,-100.00,SW,225,4.0,11.0,78,-99.99,,,-99.99,,2013-02-14 00:42:00,
2013-02-13 16:52:00,50.0,43.0,-100.00,SW,225,4.0,11.0,78,-99.99,,,-99.99,,2013-02-14 00:52:00,
2013-02-13 17:01:00,50.0,43.0,-100.00,South,180,4.0,11.0,78,-99.99,,,-99.99,,2013-02-14 01:01:00,
2013-02-13 17:11:00,50.0,42.0,-100.00,SW,225,6.0,9.0,76,-99.99,,,-99.99,,2013-02-14 01:11:00,
2013-02-13 17:21:00,50.0,42.0,-100.00,SW,225,6.0,9.0,76,-99.99,,,-99.99,,2013-02-14 01:21:00,
2013-02-13 17:31:00,49.0,43.0,-100.00,SW,225,3.0,9.0,78,-99.99,,,-99.99,,2013-02-14 01:31:00,
2013-02-13 17:41:00,49.0,42.0,-100.00,SW,225,4.0,8.0,78,-99.99,,,-99.99,,2013-02-14 01:41:00,
2013-02-13 17:51:00,49.0,42.0,-100.00,SW,225,4.0,8.0,78,-99.99,,,-99.99,,2013-02-14 01:51:00,
2013-02-13 18:01:00,49.0,42.0,-100.00,SW,225,3.0,8.0,79,-99.99,,,-99.99,,2013-02-14 02:01:00,
2013-02-13 18:11:00,48.0,43.0,-100.00,SW,225,3.0,8.0,81,-99.99,,,-99.99,,2013-02-14 02:11:00,
2013-02-13 18:21:00,48.0,43.0,-100.00,SW,225,3.0,8.0,81,-99.99,,,-99.99,,2013-02-14 02:21:00,
2013-02-13 18:31:00,48.0,43.0,-100.00,SW,225,4.0,6.0,82,-99.99,,,-99.99,,2013-02-14 02:31:00,
2013-02-13 18:41:00,48.0,43.0,-100.00,SW,225,4.0,6.0,82,-99.99,,,-99.99,,2013-02-14 02:41:00,
2013-02-13 19:02:00,48.0,43.0,-100.00,South,180,4.0,8.0,83,-99.99,,,-99.99,,2013-02-14 03:02:00,
2013-02-13 19:11:00,48.0,43.0,-100.00,SW,225,3.0,8.0,82,-99.99,,,-99.99,,2013-02-14 03:11:00,
2013-02-13 19:21:00,48.0,43.0,-100.00,SW,225,3.0,8.0,82,-99.99,,,-99.99,,2013-02-14 03:21:00,
2013-02-13 19:31:00,48.0,42.0,-100.00,SW,225,3.0,7.0,81,-99.99,,,-99.99,,2013-02-14 03:31:00,
2013-02-13 19:42:00,47.0,42.0,-100.00,South,180,3.0,6.0,82,-99.99,,,-99.99,,2013-02-14 03:42:00,
2013-02-13 19:52:00,47.0,42.0,-100.00,South,180,3.0,6.0,82,-99.99,,,-99.99,,2013-02-14 03:52:00,
2013-02-13 20:01:00,47.0,42.0,-100.00,South,180,3.0,7.0,82,-99.99,,,-99.99,,2013-02-14 04:01:00,
2013-02-13 20:11:00,47.0,41.0,-100.00,SW,225,3.0,7.0,82,-99.99,,,-99.99,,2013-02-14 04:11:00,
2013-02-13 20:21:00,47.0,41.0,-100.00,SW,225,3.0,7.0,82,-99.99,,,-99.99,,2013-02-14 04:21:00,
2013-02-13 20:31:00,46.0,42.0,-100.00,SW,225,3.0,6.0,83,-99.99,,,-99.99,,2013-02-14 04:31:00,
2013-02-13 20:41:00,46.0,41.0,-100.00,South,180,3.0,6.0,83,-99.99,,,-99.99,,2013-02-14 04:41:00,
2013-02-13 20:52:00,46.0,41.0,-100.00,South,180,3.0,6.0,83,-99.99,,,-99.99,,2013-02-14 04:52:00,
2013-02-13 21:01:00,46.0,41.0,-100.00,South,180,3.0,6.0,83,-99.99,,,-99.99,,2013-02-14 05:01:00,
2013-02-13 21:11:00,46.0,41.0,-100.00,South,180,2.0,4.0,84,-99.99,,,-99.99,,2013-02-14 05:11:00,
2013-02-13 21:21:00,46.0,41.0,-100.00,South,180,2.0,4.0,84,-99.99,,,-99.99,,2013-02-14 05:21:00,
2013-02-13 21:31:00,46.0,41.0,-100.00,SW,225,1.0,3.0,84,-99.99,,,-99.99,,2013-02-14 05:31:00,
2013-02-13 21:41:00,45.0,41.0,-100.00,North,0,3.0,4.0,86,-99.99,,,-99.99,,2013-02-14 05:41:00,
2013-02-13 21:52:00,45.0,41.0,-100.00,North,0,3.0,4.0,86,-99.99,,,-99.99,,2013-02-14 05:52:00,
2013-02-13 22:01:00,45.0,42.0,-100.00,South,180,1.0,2.0,89,-99.99,,,-99.99,,2013-02-14 06:01:00,
2013-02-13 22:11:00,45.0,42.0,-100.00,West,270,0.0,1.0,90,-99.99,,,-99.99,,2013-02-14 06:11:00,
2013-02-13 22:21:00,45.0,42.0,-100.00,West,270,0.0,1.0,90,-99.99,,,-99.99,,2013-02-14 06:21:00,
2013-02-13 22:31:00,44.0,42.0,-100.00,SW,225,1.0,3.0,90,-99.99,,,-99.99,,2013-02-14 06:31:00,
2013-02-13 22:41:00,44.0,41.0,-100.00,North,0,1.0,2.0,88,-99.99,,,-99.99,,2013-02-14 06:41:00,
2013-02-13 22:52:00,44.0,41.0,-100.00,North,0,1.0,2.0,88,-99.99,,,-99.99,,2013-02-14 06:52:00,
2013-02-13 23:01:00,43.0,40.0,-100.00,North,0,3.0,4.0,88,-99.99,,,-99.99,,2013-02-14 07:01:00,
2013-02-13 23:11:00,43.0,40.0,-100.00,SW,225,1.0,1.0,88,-99.99,,,-99.99,,2013-02-14 07:11:00,
2013-02-13 23:21:00,43.0,40.0,-100.00,SW,225,1.0,1.0,88,-99.99,,,-99.99,,2013-02-14 07:21:00,
2013-02-13 23:31:00,42.0,40.0,-100.00,SW,225,2.0,4.0,92,-99.99,,,-99.99,,2013-02-14 07:31:00,
2013-02-13 23:41:00,42.0,40.0,-100.00,NW,315,1.0,2.0,91,-99.99,,,-99.99,,2013-02-14 07:41:00,
2013-02-13 23:52:00,42.0,40.0,-100.00,NW,315,1.0,2.0,91,-99.99,,,-99.99,,2013-02-14 07:52:00,